Tracking 30298 objects as of 27-Apr-2025
HD Live streaming from Space Station
objects crossing your sky now

ARIANE 5 R/B

Track ARIANE 5 R/B now!
10-day predictions


NORAD ID: 36034
Int'l Code: 2009-058C
Perigee: 272.3 km
Apogee: 21,230.6 km
Inclination: 6.3 °
Period: 371.6 minutes
Semi major axis: 17122 km
RCS: 21.239 m2 (large)
Launch date: October 29, 2009
Source: France (FR)
Launch site: FRENCH GUIANA (FRGUI)

Note: This is a ROCKET BODY
Your satellite tracking list
Your tracking list is empty




NASA's NSSDC Master Catalog

Two Line Element Set (TLE):
1 36034U 09058C   25117.42628155  .00005699  00000-0  88706-3 0  9998
2 36034   6.2913 296.3457 6120145 208.8707  95.7382  3.87484785175704
Source of the keplerian elements: AFSPC